CDT,Max TemperatureF,Mean TemperatureF,Min TemperatureF,Max Dew PointF,MeanDew PointF,Min DewpointF,Max Humidity, Mean Humidity, Min Humidity, Max Sea Level PressureIn, Mean Sea Level PressureIn, Min Sea Level PressureIn, Max VisibilityMiles, Mean VisibilityMiles, Min VisibilityMiles, Max Wind SpeedMPH, Mean Wind SpeedMPH, Max Gust SpeedMPH,PrecipitationIn, CloudCover, Events, WindDirDegrees
2012-3-1,30,29,28,30,28,27,100,95,86,29.73,29.68,29.56,10,8,3,8,4,,0.02,8,,326
2012-3-2,32,29,26,32,28,27,100,95,80,29.74,29.61,29.44,10,6,0,8,2,,0.02,8,Fog,334
2012-3-3,30,24,15,28,21,12,100,84,69,29.74,29.53,29.36,10,7,2,15,7,20,0.00,8,Snow,340
2012-3-4,21,12,3,10,6,0,92,75,58,29.91,29.81,29.75,10,9,2,9,2,,0.01,8,Snow,16
2012-3-5,30,14,-2,23,10,-6,93,74,55,30.14,30.07,29.98,10,9,2,13,3,18,0.00,5,Snow,205
2012-3-6,44,32,21,36,27,19,100,78,57,29.97,29.75,29.64,10,9,4,13,7,17,0.00,1,,170
2012-3-7,50,42,33,45,38,34,100,80,58,29.68,29.60,29.51,10,8,1,15,7,21,0.05,6,Rain,219
2012-3-8,32,28,24,28,19,10,100,70,41,29.99,29.90,29.73,10,9,1,18,12,32,0.00,7,Snow,287
2012-3-9,26,20,15,18,7,0,86,57,31,30.44,30.34,30.09,10,8,2,17,11,32,0.00,6,Snow,320
2012-3-10,51,38,24,28,18,5,59,46,33,30.28,29.98,29.87,10,10,10,21,12,28,0.00,1,,209
2012-3-11,59,46,32,30,27,23,75,45,29,30.03,29.98,29.92,10,10,10,17,8,20,0.00,1,,209
2012-3-12,50,46,41,46,41,27,100,91,46,29.94,29.72,29.60,10,7,0,12,5,,0.36,7,Rain,171
2012-3-13,53,44,35,43,27,9,100,62,16,29.99,29.88,29.67,10,10,4,17,11,25,0.00,1,,279
2012-3-14,69,48,28,48,36,23,100,67,40,29.97,29.86,29.76,10,10,10,13,3,23,0.00,1,,203
2012-3-15,64,48,33,37,28,23,100,51,24,30.04,30.00,29.90,10,10,3,9,3,,0.00,1,,33
2012-3-16,69,50,30,46,36,25,93,64,40,30.06,30.00,29.94,10,10,10,13,3,17,0.00,1,,155
2012-3-17,77,64,51,59,53,46,100,76,41,29.93,29.89,29.86,10,8,2,21,6,26,0.00,2,,196
2012-3-18,77,64,51,55,52,48,100,69,36,29.94,29.89,29.85,10,9,2,17,6,25,0.00,2,,183
2012-3-19,77,65,53,59,53,50,100,68,39,29.91,29.87,29.82,10,10,7,15,7,28,0.00,2,,172
2012-3-20,73,62,46,59,53,46,100,74,44,29.99,29.91,29.84,10,9,0,21,8,26,0.00,4,Fog-Rain,195
2012-3-21,71,58,44,54,48,45,100,61,46,30.07,30.00,29.96,10,9,0,20,6,26,0.00,5,Fog-Rain,218
2012-3-22,57,54,51,54,53,50,100,96,82,30.18,30.14,30.10,10,8,1,12,3,,0.03,6,Rain,96
2012-3-23,57,54,50,57,53,50,100,100,94,30.08,30.00,29.93,10,5,1,8,5,,0.15,8,Rain,106
2012-3-24,60,55,50,55,52,50,100,94,77,29.94,29.91,29.90,10,6,0,10,4,,0.00,7,Fog,31
2012-3-25,51,40,28,52,33,21,100,73,32,30.28,30.10,29.96,10,10,10,16,9,21,0.00,4,,348
2012-3-26,46,34,21,19,14,9,86,51,22,30.41,30.33,30.21,10,10,10,13,8,20,0.00,2,,114
2012-3-27,62,47,32,46,31,12,80,59,39,30.14,29.78,29.50,10,10,7,24,12,37,0.00,8,Rain,182
2012-3-28,50,42,35,37,30,28,93,75,61,30.07,29.91,29.59,10,10,5,21,13,31,0.01,8,Rain,325
2012-3-29,44,37,30,32,26,23,100,66,46,30.16,30.09,30.00,10,10,10,12,4,17,0.00,5,,92
2012-3-30,33,32,30,34,31,23,100,93,69,29.95,29.87,29.84,10,7,1,14,8,20,0.06,8,Snow,126
2012-3-31,37,34,32,36,33,32,100,96,87,29.96,29.89,29.73,10,6,1,12,6,18,0.00,8,,169